UKV6539 AYNZ-AYPY

Flight info

Callsign UKV6539
Flight time 0h 49m
Altitude 19000
Route VIDOT H414 SAKTO SAKTO1
Aircraft AT76/M-SBDFGRY/S

Departure

Time 2026-05-09 19:34
Airport Nadzab Tomodachi International Airport (AYNZ)

Arrival

Time 2026-05-09 20:23
Airport Port Moresby Jacksons International Airport (AYPY)
Time Latitude Longitude Altitude Speed Heading
2026-05-09 19:16 -6.56589 146.72828 230 ft 0 kts 49°
2026-05-09 19:18 -6.56584 146.72833 232 ft 0 kts 49°
2026-05-09 19:18 -6.56585 146.72833 230 ft 0 kts 49°
2026-05-09 19:27 -6.56583 146.72836 232 ft 1 kts 60°
2026-05-09 19:27 -6.56586 146.72842 230 ft 1 kts 116°
2026-05-09 19:28 -6.56605 146.72840 230 ft 6 kts 208°
2026-05-09 19:28 -6.56630 146.72794 230 ft 9 kts 260°
2026-05-09 19:28 -6.56627 146.72727 230 ft 10 kts 274°
2026-05-09 19:28 -6.56621 146.72652 230 ft 11 kts 274°
2026-05-09 19:29 -6.56614 146.72573 230 ft 12 kts 273°
2026-05-09 19:29 -6.56651 146.72518 233 ft 10 kts 192°
2026-05-09 19:29 -6.56723 146.72510 232 ft 11 kts 183°
2026-05-09 19:29 -6.56768 146.72470 231 ft 10 kts 271°
2026-05-09 19:30 -6.56764 146.72399 232 ft 11 kts 274°
2026-05-09 19:30 -6.56757 146.72322 230 ft 11 kts 276°
2026-05-09 19:30 -6.56750 146.72241 230 ft 12 kts 274°
2026-05-09 19:30 -6.56742 146.72155 230 ft 13 kts 275°
2026-05-09 19:31 -6.56736 146.72063 230 ft 14 kts 274°
2026-05-09 19:31 -6.56726 146.71963 230 ft 15 kts 276°
2026-05-09 19:31 -6.56717 146.71860 231 ft 15 kts 275°
2026-05-09 19:31 -6.56707 146.71753 233 ft 15 kts 275°
2026-05-09 19:32 -6.56700 146.71652 231 ft 14 kts 271°
2026-05-09 19:32 -6.56736 146.71566 231 ft 13 kts 220°
2026-05-09 19:32 -6.56823 146.71539 229 ft 13 kts 185°
2026-05-09 19:32 -6.56886 146.71571 229 ft 10 kts 105°
2026-05-09 19:33 -6.56890 146.71597 229 ft 0 kts 94°
2026-05-09 19:33 -6.56893 146.71630 229 ft 25 kts 95°
2026-05-09 19:33 -6.56929 146.72046 232 ft 95 kts 95°
2026-05-09 19:33 -6.56994 146.72874 433 ft 128 kts 94°
2026-05-09 19:34 -6.57170 146.73725 987 ft 129 kts 125°
2026-05-09 19:34 -6.57976 146.74016 1523 ft 137 kts 199°
2026-05-09 19:34 -6.58548 146.73228 1998 ft 146 kts 246°
2026-05-09 19:34 -6.59076 146.72363 2619 ft 149 kts 237°
2026-05-09 19:35 -6.59657 146.71433 3113 ft 154 kts 236°
2026-05-09 19:35 -6.60206 146.70604 3963 ft 140 kts 231°
2026-05-09 19:35 -6.60826 146.69859 4570 ft 138 kts 228°
2026-05-09 19:35 -6.61457 146.69136 5158 ft 138 kts 227°
2026-05-09 19:36 -6.62087 146.68409 5716 ft 139 kts 227°
2026-05-09 19:36 -6.62782 146.67623 6046 ft 157 kts 227°
2026-05-09 19:36 -6.63512 146.66790 6597 ft 158 kts 227°
2026-05-09 19:36 -6.64240 146.65957 7103 ft 160 kts 227°
2026-05-09 19:37 -6.64978 146.65105 7585 ft 165 kts 227°
2026-05-09 19:37 -6.65613 146.64158 8142 ft 166 kts 243°
2026-05-09 19:37 -6.66088 146.63197 8662 ft 167 kts 239°
2026-05-09 19:37 -6.66744 146.62207 9173 ft 171 kts 233°
2026-05-09 19:38 -6.67444 146.61254 9701 ft 172 kts 232°
2026-05-09 19:38 -6.68156 146.60285 10241 ft 174 kts 233°
2026-05-09 19:38 -6.68856 146.59291 10762 ft 175 kts 234°
2026-05-09 19:38 -6.69550 146.58277 11248 ft 179 kts 235°
2026-05-09 19:39 -6.70258 146.57228 11700 ft 183 kts 235°
2026-05-09 19:39 -6.70971 146.56165 12209 ft 183 kts 235°
2026-05-09 19:39 -6.71684 146.55104 12693 ft 183 kts 235°
2026-05-09 19:39 -6.72399 146.54034 13137 ft 185 kts 235°
2026-05-09 19:40 -6.73126 146.52953 13515 ft 190 kts 235°
2026-05-09 19:40 -6.73873 146.51840 13952 ft 193 kts 235°
2026-05-09 19:40 -6.74626 146.50718 14382 ft 194 kts 235°
2026-05-09 19:40 -6.75382 146.49591 14792 ft 195 kts 235°
2026-05-09 19:41 -6.76152 146.48441 15186 ft 196 kts 235°
2026-05-09 19:41 -6.76905 146.47316 15557 ft 198 kts 236°
2026-05-09 19:41 -6.77704 146.46125 15853 ft 205 kts 235°
2026-05-09 19:41 -6.78492 146.44950 16242 ft 205 kts 236°
2026-05-09 19:42 -6.79301 146.43743 16601 ft 207 kts 235°
2026-05-09 19:42 -6.80097 146.42556 16945 ft 208 kts 235°
2026-05-09 19:42 -6.80901 146.41355 17320 ft 207 kts 235°
2026-05-09 19:42 -6.81706 146.40154 17654 ft 207 kts 236°
2026-05-09 19:43 -6.82536 146.38915 17858 ft 215 kts 235°
2026-05-09 19:43 -6.83382 146.37659 18159 ft 218 kts 236°
2026-05-09 19:43 -6.84314 146.36448 18286 ft 222 kts 217°
2026-05-09 19:43 -6.85731 146.35889 18324 ft 225 kts 185°
2026-05-09 19:44 -6.87315 146.35868 18339 ft 231 kts 173°
2026-05-09 19:44 -6.88917 146.36120 18420 ft 234 kts 166°
2026-05-09 19:44 -6.90482 146.36484 18542 ft 234 kts 165°
2026-05-09 19:44 -6.92075 146.36874 18687 ft 235 kts 165°
2026-05-09 19:45 -6.93668 146.37253 18821 ft 236 kts 166°
2026-05-09 19:45 -6.95273 146.37603 18950 ft 236 kts 166°
2026-05-09 19:45 -6.96895 146.37945 18969 ft 241 kts 167°
2026-05-09 19:45 -6.98549 146.38289 18987 ft 245 kts 167°
2026-05-09 19:46 -7.00231 146.38641 19008 ft 248 kts 167°
2026-05-09 19:46 -7.01928 146.38997 19031 ft 250 kts 166°
2026-05-09 19:46 -7.03644 146.39354 19058 ft 252 kts 167°
2026-05-09 19:46 -7.05367 146.39714 19074 ft 253 kts 167°
2026-05-09 19:47 -7.07096 146.40077 19102 ft 255 kts 167°
2026-05-09 19:47 -7.08836 146.40440 19125 ft 256 kts 167°
2026-05-09 19:47 -7.10580 146.40804 19133 ft 256 kts 167°
2026-05-09 19:47 -7.12329 146.41173 19126 ft 257 kts 167°
2026-05-09 19:48 -7.14081 146.41536 19134 ft 257 kts 167°
2026-05-09 19:48 -7.15836 146.41903 19128 ft 258 kts 167°
2026-05-09 19:48 -7.17596 146.42272 19137 ft 259 kts 167°
2026-05-09 19:48 -7.19355 146.42641 19144 ft 259 kts 167°
2026-05-09 19:49 -7.21126 146.43012 19155 ft 260 kts 167°
2026-05-09 19:49 -7.22893 146.43380 19159 ft 260 kts 167°
2026-05-09 19:49 -7.24662 146.43749 19165 ft 260 kts 167°
2026-05-09 19:49 -7.26434 146.44120 19175 ft 260 kts 167°
2026-05-09 19:50 -7.28206 146.44493 19186 ft 260 kts 167°
2026-05-09 19:50 -7.29975 146.44861 19193 ft 260 kts 167°
2026-05-09 19:50 -7.31744 146.45232 19197 ft 261 kts 167°
2026-05-09 19:50 -7.33522 146.45605 19200 ft 261 kts 167°
2026-05-09 19:51 -7.35303 146.45978 19196 ft 262 kts 167°
2026-05-09 19:51 -7.37109 146.46355 19028 ft 268 kts 167°
2026-05-09 19:51 -7.38941 146.46738 18927 ft 269 kts 167°
2026-05-09 19:51 -7.40775 146.47121 18885 ft 269 kts 167°
2026-05-09 19:52 -7.42573 146.47499 18863 ft 267 kts 167°
2026-05-09 19:52 -7.44383 146.47878 18852 ft 266 kts 167°
2026-05-09 19:52 -7.46193 146.48257 18852 ft 265 kts 167°
2026-05-09 19:52 -7.47998 146.48636 18843 ft 265 kts 167°
2026-05-09 19:53 -7.49797 146.49012 18837 ft 264 kts 167°
2026-05-09 19:53 -7.51594 146.49384 18843 ft 263 kts 167°
2026-05-09 19:53 -7.53386 146.49760 18843 ft 263 kts 167°
2026-05-09 19:53 -7.55170 146.50137 18838 ft 262 kts 167°
2026-05-09 19:54 -7.56954 146.50512 18836 ft 262 kts 167°
2026-05-09 19:54 -7.58736 146.50882 18839 ft 261 kts 167°
2026-05-09 19:54 -7.60514 146.51256 18848 ft 261 kts 167°
2026-05-09 19:54 -7.62293 146.51628 18845 ft 261 kts 167°
2026-05-09 19:55 -7.64075 146.52001 18837 ft 261 kts 167°
2026-05-09 19:55 -7.65854 146.52376 18836 ft 261 kts 167°
2026-05-09 19:55 -7.67633 146.52748 18827 ft 261 kts 167°
2026-05-09 19:56 -7.71185 146.53493 18831 ft 261 kts 167°
2026-05-09 19:56 -7.72959 146.53865 18823 ft 260 kts 167°
2026-05-09 19:56 -7.74729 146.54234 18836 ft 259 kts 167°
2026-05-09 19:56 -7.76498 146.54601 18835 ft 259 kts 167°
2026-05-09 19:57 -7.78254 146.54973 18837 ft 257 kts 167°
2026-05-09 19:57 -7.80011 146.55340 18830 ft 256 kts 167°
2026-05-09 19:57 -7.81756 146.55708 18831 ft 257 kts 166°
2026-05-09 19:57 -7.83513 146.56077 18829 ft 258 kts 167°
2026-05-09 19:58 -7.85268 146.56447 18833 ft 258 kts 167°
2026-05-09 19:58 -7.87029 146.56818 18831 ft 259 kts 167°
2026-05-09 19:58 -7.88794 146.57186 18832 ft 259 kts 167°
2026-05-09 19:58 -7.90564 146.57557 18828 ft 259 kts 167°
2026-05-09 19:59 -7.92328 146.57928 18824 ft 260 kts 167°
2026-05-09 19:59 -7.93501 146.58175 18830 ft 260 kts 167°
2026-05-09 19:59 -7.95274 146.58547 18825 ft 260 kts 167°
2026-05-09 19:59 -7.97631 146.59041 18826 ft 261 kts 167°
2026-05-09 20:00 -7.98803 146.59288 18885 ft 258 kts 167°
2026-05-09 20:00 -8.00550 146.59653 18958 ft 256 kts 167°
2026-05-09 20:00 -8.02289 146.60020 18995 ft 255 kts 167°
2026-05-09 20:00 -8.04019 146.60383 19008 ft 256 kts 167°
2026-05-09 20:01 -8.05785 146.60753 19012 ft 257 kts 167°
2026-05-09 20:01 -8.07514 146.61117 19015 ft 258 kts 167°
2026-05-09 20:01 -8.09262 146.61485 19022 ft 259 kts 167°
2026-05-09 20:01 -8.11026 146.61855 19019 ft 259 kts 167°
2026-05-09 20:02 -8.12794 146.62226 19008 ft 259 kts 167°
2026-05-09 20:02 -8.14558 146.62597 19022 ft 259 kts 167°
2026-05-09 20:02 -8.16327 146.62968 19021 ft 260 kts 167°
2026-05-09 20:03 -8.19912 146.63723 18642 ft 275 kts 167°
2026-05-09 20:03 -8.21775 146.64117 18635 ft 272 kts 167°
2026-05-09 20:03 -8.23564 146.64497 18640 ft 270 kts 167°
2026-05-09 20:03 -8.25395 146.64873 18640 ft 268 kts 167°
2026-05-09 20:04 -8.27218 146.65255 18638 ft 266 kts 167°
2026-05-09 20:04 -8.29024 146.65637 18646 ft 264 kts 167°
2026-05-09 20:04 -8.30819 146.66013 18647 ft 263 kts 167°
2026-05-09 20:04 -8.32612 146.66391 18649 ft 263 kts 167°
2026-05-09 20:05 -8.34395 146.66766 18652 ft 262 kts 167°
2026-05-09 20:05 -8.36183 146.67142 18653 ft 262 kts 167°
2026-05-09 20:05 -8.37961 146.67517 18655 ft 262 kts 167°
2026-05-09 20:05 -8.39745 146.67891 18690 ft 259 kts 167°
2026-05-09 20:06 -8.41461 146.68253 18989 ft 248 kts 167°
2026-05-09 20:06 -8.43165 146.68612 18966 ft 251 kts 167°
2026-05-09 20:06 -8.44880 146.68973 18960 ft 253 kts 167°
2026-05-09 20:06 -8.46615 146.69337 18954 ft 255 kts 167°
2026-05-09 20:07 -8.48361 146.69705 18957 ft 257 kts 167°
2026-05-09 20:07 -8.50116 146.70074 18958 ft 258 kts 167°
2026-05-09 20:07 -8.51876 146.70445 18964 ft 259 kts 167°
2026-05-09 20:07 -8.53508 146.70789 18966 ft 259 kts 167°
2026-05-09 20:08 -8.55277 146.71160 18980 ft 260 kts 167°
2026-05-09 20:08 -8.58822 146.71908 18957 ft 261 kts 167°
2026-05-09 20:08 -8.60650 146.72293 18600 ft 275 kts 167°
2026-05-09 20:09 -8.62560 146.72694 18233 ft 285 kts 167°
2026-05-09 20:09 -8.64511 146.73106 17854 ft 294 kts 167°
2026-05-09 20:09 -8.66535 146.73532 17453 ft 300 kts 167°
2026-05-09 20:09 -8.68598 146.73969 17047 ft 305 kts 167°
2026-05-09 20:10 -8.70688 146.74415 16636 ft 309 kts 167°
2026-05-09 20:10 -8.72683 146.75144 16214 ft 303 kts 146°
2026-05-09 20:10 -8.74257 146.76493 15817 ft 293 kts 136°
2026-05-09 20:10 -8.75768 146.77854 15437 ft 290 kts 139°
2026-05-09 20:11 -8.77345 146.79065 15057 ft 288 kts 144°
2026-05-09 20:11 -8.79013 146.80154 14676 ft 287 kts 147°
2026-05-09 20:11 -8.80705 146.81215 14295 ft 285 kts 147°
2026-05-09 20:11 -8.82381 146.82275 13914 ft 284 kts 147°
2026-05-09 20:12 -8.84039 146.83355 13536 ft 283 kts 146°
2026-05-09 20:12 -8.85688 146.84440 13158 ft 282 kts 146°
2026-05-09 20:12 -8.87324 146.85525 12783 ft 281 kts 146°
2026-05-09 20:12 -8.88956 146.86602 12406 ft 280 kts 146°
2026-05-09 20:13 -8.90585 146.87677 12038 ft 279 kts 146°
2026-05-09 20:13 -8.92211 146.88752 11666 ft 279 kts 146°
2026-05-09 20:13 -8.93832 146.89824 11295 ft 278 kts 146°
2026-05-09 20:13 -8.95450 146.90894 10919 ft 277 kts 146°
2026-05-09 20:14 -8.97063 146.91962 10554 ft 277 kts 146°
2026-05-09 20:14 -8.98667 146.93024 10187 ft 276 kts 146°
2026-05-09 20:14 -9.00272 146.94084 9819 ft 275 kts 146°
2026-05-09 20:14 -9.01870 146.95140 9455 ft 273 kts 146°
2026-05-09 20:15 -9.03456 146.96182 9088 ft 271 kts 146°
2026-05-09 20:15 -9.05029 146.97234 8730 ft 269 kts 146°
2026-05-09 20:15 -9.06592 146.98272 8372 ft 268 kts 146°
2026-05-09 20:15 -9.08144 146.99299 8016 ft 266 kts 146°
2026-05-09 20:16 -9.09693 147.00324 7663 ft 265 kts 146°
2026-05-09 20:16 -9.11232 147.01345 7311 ft 264 kts 146°
2026-05-09 20:16 -9.12765 147.02361 6960 ft 263 kts 146°
2026-05-09 20:16 -9.14294 147.03372 6610 ft 262 kts 146°
2026-05-09 20:17 -9.15807 147.04378 6263 ft 260 kts 146°
2026-05-09 20:17 -9.17321 147.05380 5917 ft 259 kts 146°
2026-05-09 20:17 -9.18826 147.06375 5570 ft 257 kts 146°
2026-05-09 20:17 -9.20329 147.07357 5229 ft 256 kts 147°
2026-05-09 20:18 -9.21839 147.08308 4890 ft 256 kts 148°
2026-05-09 20:18 -9.23357 147.09246 4550 ft 255 kts 147°
2026-05-09 20:18 -9.24868 147.10180 4209 ft 254 kts 147°
2026-05-09 20:18 -9.26375 147.11107 3876 ft 253 kts 148°
2026-05-09 20:19 -9.27871 147.12025 3538 ft 252 kts 148°
2026-05-09 20:19 -9.29371 147.12942 3201 ft 251 kts 148°
2026-05-09 20:19 -9.30861 147.13847 2872 ft 250 kts 148°
2026-05-09 20:19 -9.32342 147.14759 2538 ft 248 kts 148°
2026-05-09 20:20 -9.33791 147.15660 2211 ft 249 kts 149°
2026-05-09 20:20 -9.35202 147.16527 1894 ft 220 kts 150°
2026-05-09 20:20 -9.36353 147.17227 1728 ft 189 kts 149°
2026-05-09 20:20 -9.37402 147.17876 1518 ft 164 kts 149°
2026-05-09 20:21 -9.38345 147.18460 1296 ft 153 kts 149°
2026-05-09 20:21 -9.39186 147.18981 1101 ft 128 kts 149°
2026-05-09 20:21 -9.39894 147.19419 909 ft 113 kts 149°
2026-05-09 20:21 -9.40559 147.19832 741 ft 111 kts 148°
2026-05-09 20:22 -9.41213 147.20235 590 ft 110 kts 148°
2026-05-09 20:22 -9.41860 147.20640 448 ft 109 kts 148°
2026-05-09 20:22 -9.42504 147.21041 308 ft 108 kts 148°
2026-05-09 20:22 -9.43148 147.21439 210 ft 108 kts 149°
2026-05-09 20:23 -9.43763 147.21811 122 ft 94 kts 148°
2026-05-09 20:23 -9.44078 147.22007 128 ft 32 kts 149°
2026-05-09 20:23 -9.44226 147.22094 124 ft 24 kts 148°
2026-05-09 20:23 -9.44350 147.22172 127 ft 18 kts 148°
2026-05-09 20:24 -9.44456 147.22222 123 ft 16 kts 190°
2026-05-09 20:24 -9.44529 147.22128 121 ft 23 kts 238°
2026-05-09 20:24 -9.44582 147.22037 124 ft 13 kts 247°
2026-05-09 20:24 -9.44601 147.21975 124 ft 8 kts 221°
2026-05-09 20:25 -9.44623 147.21876 122 ft 15 kts 319°
2026-05-09 20:25 -9.44539 147.21824 121 ft 14 kts 329°
2026-05-09 20:25 -9.44461 147.21775 123 ft 13 kts 328°
2026-05-09 20:25 -9.44284 147.21668 123 ft 34 kts 329°
2026-05-09 20:26 -9.44115 147.21566 124 ft 25 kts 329°
2026-05-09 20:26 -9.43984 147.21480 124 ft 15 kts 328°
2026-05-09 20:26 -9.43895 147.21427 122 ft 20 kts 329°
2026-05-09 20:26 -9.43772 147.21357 124 ft 21 kts 325°
2026-05-09 20:27 -9.43700 147.21275 121 ft 12 kts 257°
2026-05-09 20:27 -9.43696 147.21201 121 ft 9 kts 280°
2026-05-09 20:27 -9.43706 147.21165 121 ft 3 kts 238°
2026-05-09 20:27 -9.43713 147.21144 124 ft 4 kts 267°
2026-05-09 20:28 -9.43711 147.21120 122 ft 5 kts 274°
2026-05-09 20:28 -9.43704 147.21105 121 ft 1 kts 326°
2026-05-09 20:28 -9.43703 147.21104 124 ft 0 kts 332°
2026-05-09 20:29 -9.43693 147.21106 124 ft 0 kts 298°